User: anonymous   Login
Location: Unspecified
(0.0000°N, 0.0000°E)
Time: 04:25:32
(UTC+00:00)
Language:

Kosmos-2195 - Orbit

View from above orbital plane
View from above orbital plane
View from above satellite
View from above satellite

Ground track
Ground track

The orbit data is extracted from the following two-line orbital elements,

1 22006U 92036A   18343.94695397 +.00000035 +00000-0 +20501-4 0  9991
2 22006 082.9338 294.9702 0037554 016.4637 042.9542 13.74931806326738
Epoch (UTC): 09 December 2018 22:43:36
Eccentricity: 0.0037554
inclination: 82.9338°
perigee height: 954 km
apogee height: 1009 km
right ascension of ascending node: 294.9702°
argument of perigee: 16.4637°
revolutions per day: 13.74931806
mean anomaly at epoch: 42.9542°
orbit number at epoch: 32673

The dashed part of the orbit path shows where the satellite is in the earth's shadow,  

DLR